Probability
0 0 0 0 0 0 0 0 0 0 0 0 0 0 0 0 0 0 0 0 0 0 0 0 0 0 0 0 0 0 0 0 0 0 0 0 0 0 0 0 0 0 0
0 0 0 0 0 0 0 0 0 0 0 0 0 0 0 0 0 0 0 0 0 0 0 0 0 0 0 0 0 0 0 0 0 0 0 0 0 0 0 0 0 0 0
0 0 0 0 0 0 0 0 0 0 0 0 0 0 0 0 0 0 0 0 0 0 0 0 0 0 0 0 0 0 0 0 3 0 0 0 0 0 0 0 0 0 0
0 0 0 0 0 0 0 0 0 0 0 0 0 0 0 0 0 0 0 0 0 0 0 0 0 0 0 0 0 0 0 3 3 0 0 0 0 0 0 0 0 0 0
0 0 0 0 0 0 0 0 0 0 0 0 0 0 0 0 0 0 0 0 0 0 0 0 0 0 0 0 0 0 0 3 3 0 0 0 0 0 0 0 0 0 0
0 0 0 0 0 0 0 0 0 0 0 0 0 0 0 0 0 0 0 0 0 0 0 0 0 0 0 0 0 0 0 3 3 0 0 0 0 0 0 0 0 0 0
0 0 0 0 0 0 0 0 0 0 0 0 0 0 0 0 0 0 0 0 0 0 0 0 0 0 0 0 0 0 0 0 0 0 0 0 0 0 0 0 0 0 0
0 0 0 0 0 0 0 0 0 0 0 0 0 0 0 0 0 0 0 0 0 0 0 0 0 0 0 0 0 0 0 0 0 0 0 0 0 0 0 0 0 0 0
0 0 0 0 0 0 0 0 0 0 0 0 0 0 0 0 0 0 0 0 0 0 0 0 0 0 0 0 0 0 0 0 0 0 0 0 0 0 0 0 0 0 0
0 0 0 0 0 0 0 0 0 0 0 0 0 0 0 0 0 0 0 0 0 0 0 0 0 0 0 0 0 0 0 0 0 0 0 0 0 0 0 0 0 0 0
0 0 0 0 0 0 0 0 0 0 0 0 0 0 0 0 0 0 0 0 0 0 0 0 0 0 0 0 0 0 0 0 0 0 0 0 0 0 0 0 0 0 0
0 0 0 0 0 0 0 0 0 0 0 0 0 0 0 0 0 0 0 0 0 0 0 0 0 0 0 0 0 0 0 0 0 0 0 0 0 0 0 0 0 0 0
0 0 0 0 0 0 0 0 0 0 0 0 0 0 0 0 0 0 0 0 0 0 0 0 0 0 0 0 0 0 0 0 0 0 0 0 0 0 0 0 0 0 0
0 0 0 0 0 0 0 0 0 0 0 0 0 0 0 0 0 0 0 0 0 0 0 0 0 0 0 0 0 0 0 0 0 0 0 0 0 0 0 0 0 0 0
0 0 0 0 0 0 0 0 0 0 0 0 0 0 0 0 0 0 0 0 0 0 0 0 0 0 0 0 0 0 0 0 0 0 0 0 0 0 0 0 0 0 0
0 0 0 0 0 0 0 0 0 0 0 0 0 0 0 0 0 0 0 0 0 0 0 0 0 0 0 0 0 0 0 0 0 0 0 0 0 0 0 0 0 0 0
0 0 0 0 0 0 0 0 0 0 0 0 0 0 0 0 0 0 0 0 0 0 0 0 0 0 0 0 0 0 0 0 0 0 0 0 0 0 0 0 0 0 0
0 0 0 0 0 0 0 0 0 0 0 0 0 0 0 0 0 0 0 0 0 0 0 0 0 0 0 0 0 0 0 0 0 0 0 0 0 0 0 0 0 0 0
0 0 0 0 0 0 0 0 0 0 0 0 0 0 0 0 0 0 0 0 0 0 0 0 0 0 0 0 0 0 0 0 0 0 0 0 0 0 0 0 0 0 0
0 0 0 0 0 0 0 0 0 0 0 0 0 0 0 0 0 0 0 0 0 0 0 0 0 0 0 0 0 0 0 0 0 0 0 0 0 0 0 0 0 0 0
0 0 0 0 0 0 0 0 0 0 0 0 0 0 0 0 0 0 0 0 0 0 0 0 0 0 0 0 0 0 0 0 0 0 0 0 0 0 0 0 0 0 0
0 0 0 0 0 0 0 0 0 0 0 0 0 0 0 0 0 0 0 0 0 0 0 0 0 0 0 0 0 0 0 0 0 0 0 0 0 0 0 0 0 0 0
0 0 0 0 0 0 0 0 0 0 0 0 0 0 0 0 0 0 0 0 0 0 0 0 0 0 0 0 0 0 0 0 0 0 0 0 0 0 0 0 0 0 0
0 0 0 0 0 0 0 0 0 0 0 0 0 0 0 0 0 0 0 0 0 0 0 0 0 0 0 0 0 0 0 0 0 0 0 0 0 0 0 0 0 0 0
0 0 0 0 0 0 0 0 0 0 0 0 0 0 0 0 0 0 0 0 0 0 0 0 0 0 0 0 0 0 0 0 0 0 0 0 0 0 0 0 0 0 0
0 0 0 0 0 0 0 0 0 0 0 0 0 0 0 0 0 0 0 0 0 0 0 0 0 0 0 0 0 0 0 0 0 0 0 0 0 0 0 0 0 0 0
Height
5818 5822 5825 5829 5832 5835 5837 5839 5841 5843 5845 5846 5847 5849 5850 5851 5851 5852 5853 5853 5853 5853 5853 5853 5852 5851 5851 5850 5848 5847 5845 5843 5842 5839 5837 5835 5833 5831 5828 5825 5822 5818 5815
5811 5815 5818 5822 5825 5828 5831 5833 5836 5838 5839 5841 5842 5844 5845 5846 5847 5848 5848 5849 5849 5849 5848 5848 5848 5847 5846 5845 5844 5842 5841 5839 5837 5835 5833 5831 5829 5826 5823 5821 5817 5814 5811
5803 5807 5811 5815 5818 5821 5824 5827 5829 5832 5834 5836 5837 5838 5840 5841 5842 5843 5843 5843 5844 5844 5843 5843 5843 5842 5841 5840 5839 5837 5836 5834 5832 5830 5829 5826 5824 5821 5819 5816 5813 5809 5806
5794 5798 5803 5807 5810 5814 5817 5820 5823 5825 5828 5829 5831 5832 5834 5835 5836 5837 5837 5838 5838 5838 5838 5838 5837 5837 5836 5835 5834 5832 5831 5829 5827 5826 5824 5821 5819 5816 5814 5811 5807 5804 5801
5785 5790 5795 5799 5802 5806 5809 5812 5815 5818 5821 5823 5824 5826 5827 5829 5830 5830 5831 5832 5832 5832 5832 5832 5832 5831 5830 5829 5828 5826 5825 5823 5822 5820 5818 5816 5814 5811 5808 5805 5802 5799 5796
5775 5781 5785 5790 5794 5798 5801 5804 5808 5810 5813 5815 5817 5819 5821 5822 5823 5824 5825 5825 5826 5826 5826 5826 5825 5825 5824 5823 5822 5820 5819 5818 5816 5814 5812 5810 5808 5805 5803 5800 5797 5794 5790
5766 5771 5776 5780 5785 5789 5793 5796 5799 5802 5805 5807 5809 5811 5813 5815 5816 5817 5818 5818 5819 5819 5819 5819 5818 5818 5817 5816 5815 5814 5812 5811 5809 5808 5806 5804 5802 5799 5797 5794 5791 5788 5784
5756 5761 5766 5771 5776 5780 5783 5787 5790 5793 5796 5798 5801 5802 5805 5807 5808 5809 5810 5811 5811 5811 5811 5811 5811 5810 5809 5809 5808 5806 5805 5804 5802 5801 5799 5797 5795 5793 5790 5788 5785 5782 5778
5746 5752 5757 5762 5766 5770 5774 5778 5781 5784 5786 5788 5790 5793 5795 5798 5800 5801 5802 5802 5802 5803 5803 5803 5803 5802 5801 5801 5800 5799 5797 5796 5795 5793 5792 5790 5788 5786 5784 5781 5778 5775 5772
5735 5741 5746 5751 5756 5760 5764 5767 5770 5773 5776 5778 5780 5783 5786 5787 5789 5791 5793 5793 5793 5794 5794 5794 5794 5793 5793 5792 5792 5791 5790 5788 5787 5785 5784 5782 5780 5778 5776 5773 5771 5768 5765
5724 5730 5735 5740 5745 5749 5753 5756 5759 5762 5765 5768 5770 5772 5774 5776 5778 5780 5782 5783 5783 5784 5784 5784 5784 5784 5784 5783 5783 5782 5781 5780 5778 5777 5775 5774 5772 5770 5768 5766 5763 5760 5757
5713 5718 5723 5728 5733 5737 5742 5745 5748 5751 5754 5757 5759 5761 5763 5765 5767 5768 5770 5771 5772 5773 5774 5774 5774 5774 5774 5773 5773 5773 5772 5771 5770 5768 5767 5765 5763 5762 5760 5758 5755 5753 5750
5702 5707 5712 5717 5721 5725 5729 5733 5736 5740 5742 5745 5748 5750 5752 5754 5755 5756 5757 5759 5760 5762 5762 5763 5763 5763 5763 5763 5763 5762 5762 5761 5760 5759 5758 5757 5755 5753 5751 5749 5747 5745 5742
5692 5696 5700 5705 5709 5713 5717 5720 5723 5727 5730 5733 5736 5738 5740 5742 5743 5744 5745 5746 5747 5749 5750 5751 5752 5752 5751 5752 5752 5752 5751 5751 5750 5750 5749 5747 5746 5744 5742 5740 5739 5736 5734
5681 5685 5689 5693 5697 5701 5704 5707 5711 5715 5718 5721 5724 5726 5728 5730 5731 5732 5733 5734 5735 5735 5737 5739 5739 5740 5740 5740 5740 5741 5741 5740 5740 5739 5738 5737 5736 5735 5733 5731 5729 5727 5726
5670 5674 5677 5681 5685 5689 5692 5695 5699 5702 5706 5709 5711 5713 5715 5717 5718 5719 5720 5721 5722 5722 5723 5726 5727 5728 5728 5729 5729 5729 5729 5729 5729 5728 5728 5727 5726 5725 5724 5722 5720 5718 5717
5659 5663 5666 5670 5673 5677 5680 5684 5687 5690 5693 5696 5698 5700 5702 5704 5705 5706 5708 5709 5709 5710 5711 5713 5714 5715 5716 5716 5717 5717 5717 5717 5717 5717 5717 5716 5716 5715 5714 5712 5711 5709 5708
5648 5651 5655 5658 5662 5665 5668 5671 5675 5677 5680 5682 5685 5687 5689 5690 5691 5693 5695 5696 5697 5697 5698 5700 5702 5702 5703 5704 5704 5705 5705 5705 5706 5706 5706 5706 5705 5704 5703 5703 5701 5700 5699
5636 5640 5644 5647 5650 5653 5656 5658 5661 5664 5667 5669 5671 5673 5675 5677 5678 5680 5682 5683 5684 5685 5686 5687 5689 5690 5691 5691 5692 5692 5693 5693 5694 5694 5695 5695 5695 5694 5694 5693 5691 5690 5689
5626 5629 5632 5635 5638 5641 5643 5645 5648 5650 5653 5655 5657 5659 5661 5663 5665 5667 5668 5670 5671 5672 5673 5674 5676 5677 5678 5679 5679 5680 5681 5681 5682 5683 5683 5684 5684 5684 5683 5682 5682 5681 5680
5616 5618 5621 5624 5627 5628 5630 5632 5634 5636 5638 5640 5642 5644 5647 5649 5651 5653 5654 5656 5657 5658 5660 5661 5662 5664 5665 5666 5668 5668 5669 5669 5670 5670 5672 5672 5673 5673 5673 5672 5671 5671 5670
5605 5607 5610 5613 5614 5616 5617 5618 5620 5621 5623 5625 5628 5630 5632 5635 5637 5639 5641 5642 5643 5645 5646 5648 5649 5651 5653 5654 5655 5656 5656 5657 5658 5659 5660 5661 5661 5661 5661 5661 5661 5660 5660
5595 5597 5599 5600 5602 5603 5604 5606 5607 5608 5609 5611 5613 5615 5618 5620 5622 5625 5626 5627 5629 5630 5632 5634 5636 5638 5640 5641 5642 5643 5644 5644 5645 5647 5648 5649 5649 5650 5650 5650 5650 5650 5650
5584 5585 5587 5588 5589 5590 5591 5593 5594 5595 5596 5597 5599 5601 5603 5605 5607 5609 5611 5613 5614 5616 5618 5620 5622 5625 5626 5628 5629 5630 5631 5632 5633 5635 5636 5638 5638 5639 5639 5639 5639 5640 5639
5573 5574 5575 5576 5577 5578 5578 5579 5581 5581 5583 5584 5586 5587 5589 5590 5592 5594 5597 5599 5601 5602 5604 5606 5609 5611 5612 5614 5615 5617 5618 5620 5621 5623 5624 5625 5626 5627 5628 5628 5629 5629 5629
5562 5562 5563 5563 5564 5565 5566 5567 5567 5569 5570 5571 5573 5574 5575 5577 5578 5579 5582 5585 5587 5589 5591 5593 5595 5597 5598 5600 5602 5604 5606 5608 5609 5611 5613 5614 5615 5616 5617 5617 5618 5618 5618
Wind_Speed
41 39 37 35 33 31 30 29 28 26 26 26 25 24 23 23 22 22 22 22 23 23 23 23 23 23 23 24 24 24 25 26 25 25 25 26 26 27 28 29 29 30 31
42 41 40 38 36 34 33 32 30 29 27 27 26 26 25 25 24 24 24 24 24 25 25 25 25 25 25 25 25 25 26 26 26 26 26 27 28 28 29 29 30 31 31
45 43 42 41 38 36 35 33 32 31 29 28 28 27 27 26 25 25 25 26 26 26 26 27 27 27 27 27 27 27 27 27 27 27 27 28 29 29 30 30 30 31 32
47 46 44 42 41 39 37 35 34 33 32 31 30 30 29 29 28 27 28 28 28 28 28 28 29 29 29 29 29 29 28 29 29 29 29 30 30 30 30 31 31 32 33
48 47 46 44 43 41 39 38 37 36 34 33 32 31 31 31 30 30 29 29 29 29 30 30 31 31 31 31 30 31 31 31 30 30 31 32 31 31 31 32 33 33 34
49 49 48 46 45 43 42 40 39 38 37 36 35 34 34 33 33 32 32 31 31 31 32 32 33 32 32 32 32 32 32 31 31 32 32 32 32 32 33 33 34 35 35
51 49 49 48 47 45 43 43 42 41 39 38 38 37 37 36 35 34 34 34 34 34 34 34 34 34 34 33 34 34 33 33 33 33 33 32 33 33 33 34 35 36 36
52 51 50 50 49 47 46 45 44 43 42 42 41 41 40 38 37 37 36 36 36 36 36 36 36 36 35 35 35 34 35 35 35 35 34 34 35 34 34 35 35 36 37
55 54 52 51 50 49 47 46 46 45 44 45 44 43 42 41 40 39 38 38 38 38 38 38 38 37 37 36 36 36 36 36 36 36 36 36 36 36 36 36 37 37 38
55 54 53 52 52 51 49 48 48 47 47 47 47 46 46 44 44 42 41 41 40 40 40 39 40 39 39 38 38 37 37 37 38 37 37 37 37 37 37 37 38 39 39
55 55 54 53 52 51 50 49 49 49 48 48 48 47 47 47 46 45 43 43 42 42 41 41 41 41 40 40 40 39 39 38 38 38 38 39 39 39 39 39 40 39 39
53 54 54 54 53 53 53 52 50 50 49 49 49 49 49 48 47 47 46 46 45 44 44 43 43 42 42 41 41 40 39 39 39 39 39 39 39 40 40 40 41 40 40
50 52 54 53 52 52 52 52 52 51 51 50 50 50 50 49 49 48 48 48 47 47 47 46 45 44 43 43 42 41 40 40 40 40 40 41 40 40 40 41 41 41 40
48 50 52 53 53 52 53 54 52 51 51 51 50 49 50 50 49 49 48 49 49 49 49 48 46 45 44 44 43 43 42 42 41 41 41 42 42 42 42 42 42 41 41
48 48 50 51 52 52 53 54 55 53 52 51 51 51 51 51 51 51 50 50 50 50 50 49 48 45 45 44 44 44 43 42 42 42 42 43 42 43 43 42 41 41 40
47 48 49 50 52 53 53 52 54 55 55 54 53 53 52 51 51 51 50 50 51 51 48 46 46 47 46 44 43 44 44 43 43 43 43 42 42 43 42 42 41 40 39
45 47 48 49 51 52 53 53 52 53 55 55 55 54 53 52 51 52 51 51 51 50 48 46 45 46 47 46 45 44 44 44 44 44 43 43 43 43 43 42 41 40 40
46 45 45 46 47 50 51 52 52 53 54 55 56 55 54 52 51 51 50 50 50 50 48 47 46 45 45 46 47 46 45 44 43 44 44 43 43 42 42 42 41 40 39
43 44 44 45 46 48 51 53 53 53 53 53 54 55 53 53 53 52 51 50 49 49 48 48 47 46 46 45 45 46 47 46 45 44 43 43 42 42 42 42 40 40 39
39 41 44 44 45 48 50 53 54 54 54 54 53 53 53 53 52 51 51 50 49 49 48 49 48 47 46 45 46 46 46 46 46 44 43 43 43 43 42 41 39 39 38
37 39 43 44 45 47 48 50 53 53 53 53 54 53 52 52 51 51 51 51 51 51 50 50 49 48 47 46 45 45 46 46 46 45 44 43 43 43 42 40 39 38 37
36 38 41 42 43 44 45 46 47 49 50 51 51 51 51 51 51 52 52 52 52 52 51 51 50 48 47 47 47 47 45 45 46 46 44 43 42 41 40 39 38 37 37
35 38 40 41 42 43 45 45 47 47 48 49 50 51 52 53 53 53 53 52 53 53 52 52 51 50 48 47 48 48 47 46 46 45 44 42 42 41 39 38 38 37 37
34 36 37 39 41 42 44 45 47 48 48 48 49 50 51 52 53 52 52 52 53 52 52 52 51 50 49 49 48 47 46 46 45 44 43 43 41 40 39 38 37 36 35
33 34 36 37 39 41 43 44 46 46 46 46 46 47 48 49 50 50 51 51 50 50 51 51 51 51 50 49 48 47 45 44 43 43 42 41 40 40 38 37 36 36 36
31 33 35 36 38 40 42 43 44 44 44 45 46 47 48 48 49 49 50 50 49 49 50 50 50 50 50 49 49 47 44 43 43 43 42 41 40 39 38 37 36 36 35
Wind_Direction
238 238 239 241 242 244 246 248 250 252 254 256 257 258 260 262 264 267 270 273 275 277 280 284 287 291 293 296 299 301 305 308 310 311 312 314 315 316 318 320 321 323 325
238 238 239 241 242 244 246 248 251 252 254 256 257 258 260 262 264 266 269 272 274 276 279 282 286 289 291 294 296 299 303 306 307 308 309 311 312 314 316 318 319 321 323
238 239 239 240 241 243 245 248 251 252 253 256 257 258 259 262 265 266 269 271 273 275 278 282 285 287 290 292 293 297 300 303 303 304 305 307 310 311 313 315 317 319 321
237 238 239 240 241 242 244 247 249 251 253 254 257 258 258 260 263 264 267 270 272 274 277 280 283 286 288 289 291 294 297 300 301 301 302 304 306 308 309 312 314 316 318
235 237 237 239 241 243 244 246 249 251 252 254 255 257 258 260 262 264 267 269 271 273 277 280 282 284 286 287 289 292 295 297 298 299 300 301 302 304 307 310 311 312 314
235 236 237 238 240 243 243 245 247 250 252 253 254 256 258 259 261 264 266 267 270 272 275 278 281 283 284 286 288 291 292 294 296 297 299 300 300 302 305 307 309 311 313
234 235 237 238 240 242 244 245 248 250 252 253 255 257 258 259 262 263 265 267 269 272 274 276 279 281 283 284 286 288 289 291 293 294 296 298 299 301 303 305 308 310 311
234 235 237 237 238 240 243 246 248 250 252 253 255 256 258 259 261 263 265 267 270 272 273 276 277 279 280 282 284 286 287 289 290 291 293 295 297 299 301 303 306 308 310
234 236 238 238 239 241 243 246 248 250 251 253 254 256 258 259 260 262 264 266 268 270 272 274 276 277 278 280 282 284 286 288 288 289 290 292 294 296 299 301 304 306 308
235 236 238 240 240 241 243 246 248 249 250 252 254 256 257 259 260 262 263 264 266 268 271 271 274 275 278 278 280 283 284 286 287 288 289 290 292 293 296 298 301 304 305
236 237 239 240 241 242 243 244 246 249 250 252 253 255 257 259 261 262 263 264 265 267 269 270 272 274 276 276 278 280 282 284 285 287 288 288 290 292 294 296 299 301 303
238 239 241 242 242 243 244 244 246 248 250 252 253 254 256 258 260 260 262 263 264 265 267 268 271 272 274 274 276 278 280 281 283 285 286 288 290 291 293 295 298 299 301
239 241 242 242 243 245 244 244 244 248 250 252 253 254 256 258 258 260 262 263 263 264 266 267 269 270 272 273 274 276 278 280 282 283 285 287 289 291 292 294 297 298 299
239 241 242 243 244 244 245 245 245 246 249 251 252 254 255 257 259 261 263 264 264 264 265 266 267 268 270 272 272 274 276 278 280 283 284 285 287 290 291 292 295 296 297
239 241 242 244 244 245 245 244 245 245 247 249 251 253 255 256 258 260 263 265 266 266 266 266 265 266 270 272 272 273 275 277 279 281 282 284 285 288 289 291 294 295 296
241 243 244 245 246 246 246 246 246 247 247 248 251 254 256 257 259 259 261 264 265 267 267 266 265 266 268 270 272 272 273 276 278 279 281 282 285 287 288 290 292 293 295
242 246 246 247 247 247 247 247 248 248 248 249 252 254 256 256 257 258 261 263 264 265 265 265 265 268 269 270 271 272 273 274 277 278 279 282 284 285 286 288 290 292 294
243 246 246 246 248 249 249 249 250 251 251 251 252 253 255 255 257 258 260 262 264 265 265 265 266 268 269 271 271 271 272 275 276 277 278 280 283 285 285 286 288 291 294
244 245 245 247 250 252 250 249 250 251 251 252 253 253 254 255 256 257 260 263 264 264 265 266 267 268 270 271 271 271 271 273 275 275 276 278 281 283 285 286 288 290 292
246 245 246 249 251 252 252 251 252 254 253 253 253 253 253 255 257 257 259 261 262 263 264 266 267 268 269 271 271 272 272 273 274 273 274 276 278 281 283 284 286 289 291
250 248 247 248 251 253 253 254 254 254 255 255 254 254 254 255 256 256 258 260 261 262 263 265 266 268 269 271 271 273 273 272 271 272 273 275 277 279 281 283 285 288 289
251 249 249 249 251 253 254 255 255 255 255 255 255 254 254 254 256 257 258 259 259 261 262 264 265 267 269 270 270 272 272 270 269 271 272 274 277 279 280 282 284 285 287
255 252 251 250 251 253 253 254 255 256 256 256 255 255 255 255 256 256 257 257 258 259 261 263 265 267 267 268 270 270 269 269 270 269 271 274 276 277 279 281 283 284 285
260 256 255 254 254 253 252 253 254 255 255 256 256 257 258 257 255 256 258 258 260 261 262 263 264 265 265 265 267 267 268 267 268 269 270 273 274 275 276 279 281 282 284
264 260 257 257 257 257 256 255 255 256 256 257 258 258 258 256 255 256 258 259 260 261 261 261 262 263 263 263 264 265 266 267 268 268 269 272 274 274 274 277 279 280 281
268 265 261 259 259 260 259 257 256 256 255 256 257 258 257 255 256 256 257 258 259 260 260 260 261 261 262 262 263 264 265 267 267 267 268 271 272 273 274 275 277 279 280